Wind_Speed
56 57 56 56 56 55 55 55 54 53 52 50 49 50 50 50 49 49 49 49 49 49 49 48 47 46 46 45 45 44 43 41 41 39 38 36 36 35
54 56 56 55 56 56 57 56 55 54 54 52 52 52 52 52 52 52 51 51 51 51 51 51 50 49 48 47 48 47 45 43 43 41 40 39 39 37
52 53 55 54 54 55 55 56 57 56 55 53 53 54 54 54 55 54 53 53 53 53 53 53 52 51 50 50 50 49 48 46 45 44 42 41 40 39
51 51 52 54 54 54 55 56 56 56 55 55 55 56 57 56 56 55 55 55 55 55 55 55 54 54 53 52 51 51 48 47 46 45 44 42 41 40
48 49 51 52 54 54 54 56 57 56 55 55 57 58 58 58 56 56 57 57 56 56 57 57 56 56 54 53 52 51 49 48 47 46 45 44 42 41
44 46 49 51 52 54 55 56 56 56 57 57 57 58 58 58 58 58 59 58 58 58 58 58 57 55 54 53 52 51 50 50 49 48 47 45 44 43
42 45 48 51 52 53 54 55 55 56 57 59 59 58 59 59 60 60 60 60 59 59 58 58 58 56 55 54 53 53 52 52 51 49 48 47 46 45
39 42 44 46 48 50 52 54 55 56 57 59 59 59 60 61 61 61 60 61 60 59 60 59 59 57 56 56 55 54 53 52 51 51 50 49 48 48
38 40 42 44 46 48 51 53 55 57 59 58 60 60 60 60 61 61 61 62 61 61 62 60 59 59 58 57 57 56 55 55 54 53 52 51 51 50
39 42 44 47 49 51 52 53 55 58 59 60 60 61 61 61 61 60 61 61 60 61 62 61 60 60 59 59 58 58 58 58 57 56 55 54 53 52
42 45 47 49 51 53 54 54 55 57 58 58 60 60 61 61 62 62 61 61 61 60 61 62 61 62 62 61 61 61 60 59 59 58 57 55 55 54
43 46 48 50 51 52 54 56 57 57 58 58 58 59 60 60 61 62 62 61 61 61 61 62 61 62 62 61 60 61 60 60 59 58 58 57 56 56
45 46 47 49 51 53 54 55 55 56 57 58 59 60 61 61 60 60 61 61 60 60 60 61 60 60 61 60 58 58 59 58 57 57 56 56 55 54
46 47 49 50 51 52 53 54 55 56 57 59 60 61 61 61 60 59 59 60 59 59 60 60 60 59 59 57 56 55 56 56 56 55 55 55 54 52
48 48 49 50 51 51 52 53 55 56 57 58 59 60 60 60 60 59 58 57 57 57 57 57 57 57 56 55 55 54 54 54 54 54 53 52 51 51
48 48 48 49 50 51 52 52 54 55 57 58 58 58 58 58 56 56 56 55 54 53 53 54 54 53 52 51 51 51 51 51 50 50 49 49 49 49
48 48 49 49 50 51 52 53 54 55 55 55 55 54 54 53 53 52 53 52 52 51 50 50 50 49 48 47 47 47 47 47 47 47 48 47 46 45
48 48 49 50 50 51 52 53 53 52 52 51 50 50 49 49 48 49 49 49 48 47 47 47 47 46 46 44 43 43 43 44 44 44 44 44 44 43
48 48 49 49 50 50 50 50 49 48 47 45 44 44 44 44 44 44 44 44 44 44 44 43 42 43 42 41 40 40 40 41 41 40 40 41 41 41
48 48 48 48 48 48 47 46 44 43 42 40 39 39 39 39 39 40 39 40 39 40 40 40 39 38 37 37 38 38 39 38 38 38 38 39 40 40
48 47 47 47 46 45 43 42 40 39 37 36 35 35 34 34 35 35 35 34 34 34 33 34 34 34 34 34 34 34 35 35 35 35 36 37 38 37
46 46 45 44 43 41 39 38 37 35 34 33 32 31 31 30 29 29 29 29 29 29 28 29 30 31 31 30 29 30 30 31 32 33 34 35 35 35
44 43 42 41 39 37 36 35 34 32 31 30 29 29 28 26 25 25 24 24 24 23 23 23 24 26 27 28 27 26 27 28 29 31 32 33 33 33
Wind_Direction
252 253 254 257 257 259 261 262 263 263 264 265 267 269 270 270 270 270 271 272 273 274 275 275 275 277 278 279 279 279 279 278 278 276 277 277 277 278
253 253 254 256 258 259 261 263 264 265 266 266 267 269 270 270 270 270 270 271 271 273 274 274 274 274 276 277 277 277 277 276 276 274 274 275 275 275
254 255 254 255 259 260 262 263 264 267 268 268 268 269 269 270 271 270 270 269 271 272 273 273 273 274 275 276 276 275 275 274 273 273 273 274 274 274
254 256 257 258 260 261 262 264 265 266 268 269 269 268 269 270 271 270 270 270 271 272 272 272 272 273 274 275 274 274 272 272 272 272 272 271 272 272
256 258 259 260 260 261 262 263 264 266 267 269 269 269 270 271 270 270 271 271 271 272 272 272 272 273 273 273 274 271 270 270 270 270 269 270 270 270
261 260 261 261 261 262 263 264 265 266 267 268 269 270 269 269 270 270 271 271 271 271 271 272 272 272 273 272 271 269 269 269 269 269 268 268 268 268
264 263 263 263 264 263 264 264 266 267 267 268 269 269 269 270 269 269 269 270 270 270 270 271 272 271 271 270 269 268 268 268 267 267 266 265 265 265
266 266 267 267 266 267 267 267 267 268 268 269 270 270 271 271 270 269 269 269 269 269 270 271 272 271 271 270 269 268 267 267 267 267 265 264 264 264
269 270 270 269 269 270 270 269 269 270 269 270 270 270 271 271 271 270 270 269 269 270 270 270 270 270 269 269 268 267 267 267 267 266 264 264 264 263
273 272 272 271 271 272 272 271 271 271 270 270 270 271 271 271 271 271 272 271 271 271 270 270 269 269 268 267 266 266 266 265 266 265 264 263 262 261
278 276 275 274 274 274 273 272 272 272 271 271 272 272 272 273 272 272 272 272 272 271 270 269 269 268 267 266 266 265 265 264 264 263 262 261 260 260
285 282 279 278 277 277 276 275 274 273 272 271 272 272 273 274 274 273 273 272 272 271 270 270 270 269 268 267 266 264 263 263 262 262 261 260 259 259
289 287 285 283 281 280 279 278 277 275 274 273 272 272 273 274 274 274 274 273 272 272 271 270 270 269 268 266 265 262 261 261 260 259 259 258 257 257
291 290 289 287 285 284 282 281 279 278 277 275 274 273 273 273 274 274 274 274 273 272 272 271 270 269 268 265 262 260 259 259 258 257 256 255 254 253
294 292 291 290 288 287 286 284 282 280 279 278 276 275 274 274 274 274 273 274 273 273 272 271 271 270 267 264 261 259 258 257 256 254 253 253 251 249
295 294 293 292 291 290 289 287 286 284 282 280 278 276 274 273 273 273 272 272 273 272 271 270 270 269 266 264 261 258 257 255 254 252 251 250 248 246
296 295 295 294 293 293 292 290 289 288 286 283 280 278 275 273 273 272 272 272 271 270 269 268 267 265 263 262 260 258 255 253 252 250 247 246 246 245
298 297 297 296 295 295 294 293 292 290 287 285 282 279 277 275 273 272 272 272 271 269 268 266 264 262 260 259 257 255 253 251 250 249 247 245 243 241
300 299 299 298 298 297 296 296 295 292 289 285 282 280 278 276 273 273 272 272 271 269 267 264 262 260 258 256 254 253 252 250 247 246 244 241 238 235
301 300 300 300 300 299 298 298 296 294 290 287 284 281 279 278 275 274 273 273 272 270 266 263 260 258 257 256 254 252 249 246 244 242 240 237 233 230
302 301 301 302 301 300 299 299 298 296 293 289 286 283 282 280 278 275 274 273 271 269 265 261 256 255 255 254 253 249 245 242 239 237 234 230 227 227
304 303 303 303 303 302 300 299 298 297 294 292 289 286 285 283 280 276 274 272 269 266 263 260 257 254 252 249 247 245 240 237 234 231 228 224 225 224
305 304 303 303 303 303 302 301 299 297 295 293 290 289 286 283 282 280 277 273 268 265 262 259 254 249 246 242 241 238 234 231 229 226 224 222 221 220
Height
5684 5688 5691 5694 5696 5699 5701 5702 5703 5704 5707 5710 5711 5711 5711 5712 5712 5712 5712 5712 5712 5712 5712 5712 5712 5711 5711 5711 5710 5710 5710 5709 5709 5709 5709 5709 5709 5709
5672 5675 5679 5682 5684 5686 5687 5688 5689 5690 5693 5696 5697 5698 5697 5698 5698 5698 5699 5699 5699 5699 5699 5699 5699 5698 5698 5697 5697 5697 5697 5697 5697 5697 5697 5697 5698 5698
5659 5662 5665 5668 5670 5672 5673 5675 5675 5676 5678 5681 5682 5683 5683 5683 5684 5683 5683 5684 5684 5685 5684 5685 5684 5684 5684 5684 5683 5683 5683 5683 5684 5684 5684 5685 5685 5686
5647 5649 5651 5654 5656 5657 5659 5660 5661 5662 5663 5665 5667 5667 5668 5668 5668 5668 5668 5668 5669 5669 5669 5669 5669 5669 5669 5668 5668 5668 5668 5669 5669 5670 5671 5671 5672 5673
5634 5636 5638 5639 5641 5643 5644 5644 5646 5647 5647 5649 5650 5651 5652 5652 5652 5652 5652 5653 5653 5653 5653 5653 5653 5653 5653 5652 5653 5653 5653 5654 5655 5655 5656 5658 5659 5660
5622 5623 5625 5626 5627 5628 5628 5629 5630 5631 5631 5632 5634 5634 5635 5635 5635 5635 5636 5636 5636 5636 5636 5636 5636 5635 5636 5636 5637 5637 5638 5638 5640 5641 5642 5644 5645 5646
5610 5611 5612 5612 5613 5613 5614 5614 5614 5615 5615 5616 5617 5617 5617 5617 5617 5617 5618 5618 5618 5618 5618 5618 5618 5618 5618 5619 5620 5621 5621 5623 5624 5625 5627 5629 5630 5632
5598 5599 5599 5599 5599 5599 5599 5598 5598 5598 5599 5599 5599 5599 5599 5599 5598 5598 5598 5599 5600 5601 5599 5600 5600 5600 5601 5602 5603 5603 5605 5606 5608 5609 5611 5613 5615 5617
5587 5587 5586 5585 5585 5584 5583 5583 5582 5581 5581 5581 5581 5580 5580 5580 5579 5579 5578 5578 5580 5580 5579 5581 5581 5581 5583 5583 5584 5585 5587 5588 5590 5592 5594 5596 5599 5601
5575 5574 5573 5571 5569 5568 5567 5566 5565 5564 5563 5562 5562 5561 5560 5559 5558 5558 5557 5558 5559 5558 5556 5559 5560 5561 5562 5563 5564 5565 5567 5569 5571 5573 5575 5578 5581 5584
5562 5560 5558 5556 5554 5552 5551 5549 5547 5545 5543 5542 5541 5540 5539 5538 5537 5536 5536 5535 5537 5538 5535 5536 5538 5539 5541 5542 5543 5544 5546 5548 5550 5553 5556 5558 5562 5565
5548 5545 5542 5539 5536 5533 5531 5529 5528 5526 5524 5522 5521 5519 5517 5516 5515 5514 5514 5513 5514 5516 5515 5514 5515 5515 5518 5521 5521 5522 5524 5526 5529 5532 5535 5539 5543 5547
5534 5530 5526 5522 5518 5515 5512 5509 5507 5505 5504 5502 5501 5499 5497 5496 5495 5493 5492 5492 5492 5494 5494 5492 5493 5493 5494 5498 5500 5501 5503 5506 5509 5512 5516 5520 5524 5528
5519 5514 5510 5505 5501 5497 5494 5490 5488 5485 5483 5482 5480 5479 5477 5476 5475 5474 5473 5472 5471 5472 5472 5471 5472 5472 5473 5475 5479 5482 5484 5487 5490 5494 5497 5501 5506 5511
5503 5499 5494 5489 5484 5480 5476 5472 5468 5465 5463 5461 5459 5458 5457 5456 5455 5454 5453 5452 5452 5451 5451 5450 5451 5452 5452 5455 5458 5462 5465 5468 5471 5474 5479 5484 5489 5494
5488 5484 5479 5473 5469 5464 5459 5454 5450 5446 5443 5441 5439 5437 5436 5435 5434 5434 5434 5433 5433 5433 5431 5431 5431 5432 5434 5436 5439 5442 5446 5450 5453 5457 5462 5467 5472 5478
5473 5468 5463 5458 5453 5447 5442 5437 5432 5428 5425 5422 5419 5418 5417 5416 5415 5415 5414 5414 5415 5415 5415 5414 5413 5414 5416 5418 5421 5425 5428 5432 5437 5441 5446 5451 5457 5463
5458 5453 5448 5442 5437 5432 5426 5421 5415 5410 5407 5404 5401 5400 5399 5398 5397 5397 5396 5396 5397 5397 5397 5397 5397 5398 5400 5403 5406 5409 5413 5417 5422 5426 5432 5437 5444 5450
5443 5438 5433 5427 5422 5416 5410 5405 5399 5394 5390 5387 5385 5383 5382 5381 5381 5380 5380 5380 5380 5380 5381 5381 5382 5383 5386 5389 5393 5395 5399 5403 5408 5413 5418 5425 5431 5438
5429 5424 5418 5413 5407 5401 5395 5390 5385 5380 5377 5373 5371 5369 5368 5367 5366 5366 5365 5365 5365 5365 5366 5367 5368 5370 5372 5376 5380 5383 5386 5390 5395 5400 5406 5412 5418 5425
5416 5410 5404 5399 5393 5387 5382 5377 5372 5368 5365 5361 5359 5357 5355 5354 5353 5352 5352 5351 5351 5352 5353 5354 5355 5358 5360 5363 5367 5371 5374 5378 5383 5389 5395 5401 5408 5415
5402 5396 5391 5385 5380 5374 5369 5365 5361 5357 5354 5351 5348 5346 5344 5343 5342 5341 5341 5340 5340 5341 5342 5343 5345 5347 5349 5353 5357 5360 5365 5369 5374 5379 5386 5393 5400 5407
5389 5384 5378 5373 5368 5363 5359 5354 5350 5347 5344 5341 5338 5336 5335 5334 5333 5332 5331 5331 5331 5331 5332 5334 5335 5338 5340 5344 5348 5352 5356 5361 5366 5372 5378 5385 5392 5399